Погода в Кашире

Погода в Кашире : погода сейчас, прогноз погоды и архив. Всё, что Вы хотите узнать о погоде в Кашире!

Поиск расширенной информации на нашем сайте:

Другие новости

Новости СМИ2

Главная страница сайта

Новости сайта

03.07.2017

Напоминаем, что на нашем специализированном сайте Метеоцентр.Азия вы можете получить высокодетализированные автоматические прогнозы погоды по пунктам России, СНГ и мира в авиационном формате (включающие направление и скорость ветра, видимость, явления погоды, количество и форму облачности, нижнюю и верхнюю границу облачности).


Погода в Кашире - сегодня

Время (UTC), дата Ветер
(°,м/с) 
Видим.   Явления Облачность Т
(°С)
Тd
(°С)
f(%) Тe
(°С)
Pmin
(гПа)
dP
(гПа)
Po
(мм)
O2
(г/м3)
Тmin Tmax R s Состояние
почвы
09 20.01.18 140 (ЮВ) 4000 м  слаб. ливневой снег  10/10 300 м кучево-дожд. 
[Cb cap]
-9.4 -11.6 84 -13  1012.2  -0.3  738  309           
12 20.01.18 130 (ЮВ) 4000 м  слаб. ливневой снег  10/10 300 м кучево-дожд. 
[Cb cap]
-8.8 -10.9 85 -12  1011.5  -0.7  737  308           
15 20.01.18 140 (ЮВ) 4000 м  слаб. ливневой снег  10/10 300 м кучево-дожд. 
[Cb cap]
-9 -10.5 89 -13  1011.2  -0.3  737  308         
18 20.01.18 150 (ЮВ) 4000 м  слаб. ливневой снег  10/10 300 м кучево-дожд. 
[Cb cap]
-8.4 -9.4 92 -12  1010.6  -0.4  737  307    -8.4     
21 20.01.18 150 (ЮВ) 2000 м  слаб. ливневой снег  10/10 300 м кучево-дожд. 
[Cb cap]
-7.1 -8.2 92 -10  1010.5  737  306           
00 21.01.18 160 (Ю) 4000 м  слаб. ливневой снег  10/10 300 м кучево-дожд. 
[Cb cap]
-4.1 -5.1 93 -5  1010.1  0.1  737  302           
03 21.01.18 180 (Ю) 10 км  {ливн. осадки}  10/10 300 м кучево-дожд. 
[Cb cap]
-2.8 -4.9 85 -5  1009.9  -0.1  737  300  -8.9    0.8     
06 21.01.18 160 (Ю) 10 км  {ливн. осадки}  10/10 300 м кучево-дожд. 
[Cb cap]
-3.4 -5.6 85 -5  1010.3  0.4  737  301  -8.4    0.6  равномерный
сухой снег
100% 
09 21.01.18 140 (ЮВ) 10 км    10/10 600 м 
[Sc]
-3 -4.7 88 -5  1010.3  737  301           
12 21.01.18 060 (СВ) 10 км    10/10 300 м кучево-дожд. 
[Cb cap]
-2.4 -4.6 85 -2  1009.3  -0.9  736  300           
15 21.01.18 050 (СВ) 4000 м  слаб. ливневой снег  10/10 300 м кучево-дожд. 
[Cb cap]
-3.8 -5 91 -5  1009.4  0.1  736  301      0.0     
18 21.01.18 330 (СЗ) 4000 м  слаб. ливневой снег  10/10 300 м кучево-дожд. 
[Cb cap]
-4 -5 93 -5  1009  -0.4  736  302    -2.3  0.0     
21 21.01.18 270 (З) 4000 м  слаб. ливневой снег  10/10 300 м кучево-дожд. 
[Cb cap]
-4.2 -4.8 96 -5  1009.2  0.2  736  302           
00 22.01.18 290 (З) 2000 м  слаб. ливневой снег  10/10 300 м кучево-дожд. 
[Cb cap]
-5.6 -6.7 92 -8  1010.8  1.4  737  304           
03 22.01.18 280 (З) 4000 м  слаб. ливневой снег  10/10 300 м кучево-дожд. 
[Cb cap]
-7.6 -9.3 88 -11  1013.5  2.4  739  307  -7.6    0.5     
06 22.01.18 270 (З) 10 км  {ливн. осадки}  10/10 300 м кучево-дожд. 
[Cb cap]
-8.8 -10.8 85 -12  1015.6  1.9  741  309  -8.8    0.5  равномерный
сухой снег
100% 
09 22.01.18 230 (ЮЗ) 20000 м    9/1 600 м средняя, верхняя 
[Sc|Ac trans|Ci sp]
-7.2 -10.7 76 -10  1017.2  1.8  742  308           
12 22.01.18 280 (З) 20000 м  в посл. час снег  9/9 600 м 
[Sc]
-7.2 -10.5 77 -9  1018.9  1.6  743  309           
15 22.01.18 210 (ЮЗ) 10 км    1/0 верхняя 
[Ci sp]
-10.6 -12.2 88 -10  1021.2  1.9  744  313      0.0     
18 22.01.18 270 (З) 10 км    ясно 
-10.9 -12.5 88 -13  1022.4  1.1  745  314    -6.8  0.0     
21 22.01.18 190 (Ю) 10 км    ясно 
-13.8 -15 91 -14  1023.8  1.1  746  318           
00 23.01.18 240 (ЮЗ) 10 км    ясно 
-13 -14.3 90 -13  1024.7  747  317           
03 23.01.18 280 (З) 10 км    10/10 600 м 
[Sc]
-12.8 -14.1 90 -13  1025.2  0.4  747  317  -14.1         
06 23.01.18 280 (З) 0500 м  переохл. туман  ?/?  
-15.3 -17 87 -15  1026.4  748  321  -15.3      равномерный
сухой снег
100% 
09 23.01.18 тихо ()   0500 м  туман  ?/?  
-12.7 -14.2 88 -13  1026.3  0.2  748  317           
Время (UTC), дата Ветер
(°,м/с) 
Видим.   Явления Облачность Т
(°С)
Тd
(°С)
f(%) Тe
(°С)
Pmin
(гПа)
dP
(гПа)
Po
(мм)
O2
(г/м3)
Тmin Tmax R s Состояние
почвы

Для получения пояснительной информации подведите курсор к названию столбца.

ПОГОДА в Кашире - архив

Всё, что Вы хотите узнать о погоде в Кашире - удобно и подробно!

Выберите нужную дату (начиная с 1 января 2015* года) и нажмите кнопку "Найти".
Будут отображены архивные сводки погоды по пункту Кашира, начиная с указанной даты.


Отображать данные в формате CSV (для использования в таблицах Excel)


Внимание! Наш архив погоды предназначен исключительно для личного некоммерческого использования в познавательных целях. Если Вам необходимы официальные справки о состоянии погоды (для производственных, юридических, коммерческих и т.п. целей), обращайтесь в органы Росгидромета.

*Примечание: данная дата относится к архиву по метеостанциям СССР (Россия, СНГ, Балтия).
Архив по метеостанциям Зарубежной Европы и Азии (кроме Китая) хранится 10 дней, по другим регионам земного шара (Китай, Африка, Америка, Австралия, Океания) - 1 день.

Кашира - район местоположения метеостанции


Название, широта, долгота, высота метеостанции:
Кашира 54.8°ш. 38.2°д. 221 м над ур. моря [Российская Федерация]

Дополнительная информация

В oтличие oт бoльшинства пoгoдных сайтoв мы публикуем пoдрoбную метеoинфoрмацию в детальнoм прoфессиoнальнoм фoрмате.

Характеристики температуры и влажнoсти вoздуха измеряются на высoте 2 м в тени вдали oт зданий и деревьев.
Скoрoсть ветра измеряется на высoте 10 м (на урoвне рoста челoвека скoрoсть ветра ниже в 1.5-2 раза). Если метеoстанция нахoдится в гoрoде или в лесу, тo скoрoсть ветра занижена на 2-4 м/с пo сравнению с oткрытым местoм. Скoрoсть ветра над акватoриями крупных рек и oзёр, а также на вершинах хoлмoв на 2-5 м/с выше, чем в oбычных услoвиях.
Атмoсфернoе давление в разных тoчках местнoсти мoжет значительнo oтличаться oт давления на метеoстанции, в зависимoсти oт услoвий рельефа (при пoдъёме на 10 м давление пoнижается примернo на 1 мм рт.ст.).